Find Starlink 30344

NORAD ID: 57737 Int'l Des: 2023-131 Owner: SPXS Country: US Constellation: starlink operational
LEOCIRCULAR

实时位置

正在加载3D地球...

关于 Starlink 30344

正在加载描述...

即将过境

Passes for default location (London). Set your location on the main map for personalized predictions.

高度历史

Loading altitude history...

两行轨道根数

1 57737U 23131F 26122.01655294 .00011102 00000-0 76421-3 0 9992
2 57737 43.0007 240.5323 0002233 291.8890 68.1716 15.05894542147960
Epoch: May 2, 2026 • Age: 7 hours

当前状态

高度 549.6 km
速度 7.59 km/s
星下点 22.27°N, 61.63°E
发射日期 Sep 1, 2023
运行时间 2.6 years
类型 internet

技术详情

分类 Payload
质量 730.00 kg
干质量 700.00 kg
总质量 730.00 kg
长度 0.30 m
直径 4.10 m
跨度 29.00 m
形状 Box + pan
制造商 SPXS
平台类型 Starlink V2M
阶段状态 In Orbit
所有者/国家 SPXS/US

Most Searched